ONEWEB-0267 (48985 NORAD) Tracking and Keplerian Element Data

This shows tracking and keplerian element data for the satellite.

Feedback or suggestion? Click here.




ElementValue
Catalog48985
NameONEWEB-0267
Epoch Orbit1387
Epoch Day269.25001157
Epoch Year2021
RAAN211.8834
Inclination87.9126
Eccentricity0.0005803
Argument of Perigee0.2812
Mean Anonmoly23.5311
Mean Motion13.44909231
Decay Rate1.4E-07
L11 48985U 21060U 21269.25001157 .00000014 00000-0 00000+0 0 9998
L22 48985 87.9126 211.8834 0005803 0.2812 23.5311 13.44909231 13875

Live tracking and technical data element details for ONEWEB-0267 (NORAD 48985). ONEWEB-0267 can be tracked NOW for your location showing map with azimuth and elevation plus other details from your city location.

Track the satellite on the map from your city or location and see movement details for azimuth, elevation, latitude, longitude, range, height, and movement on the map or in text.







IsCatalogInMostPopularTable: catalog: 48985, numindb: 20
Update: records affected: 1



GetName: 48985 ONEWEB-0267

Hit Count: updated at: Sun, 26 Sep 2021 16:02:45 GMT